Simultaneous Nadir Overpasses (SNOs) Predictions

Prediction of SNOs over PacNW region [( 10.00, 139.50) to ( 22.70, 165.60)] between AQUA and NPP Satellites:

Table of predicted SNOs over PacNW region for the next 30.0 days since TLE Epoch: 4/23/2016
Index Date (AQUA) Time (AQUA) AQUA Lat,Lon Date (NPP) Time (NPP) NPP Lat,Lon Distance(km) Time Diff (sec)
1 04/27/2016 16:00:14 22.62, 147.30 04/27/2016 16:02:48 23.23, 144.59 285.56 154
2 05/05/2016 15:10:37 22.62, 159.69 05/05/2016 15:12:05 23.17, 157.25 257.50 88
3 05/08/2016 03:32:24 22.69, 147.38 05/08/2016 03:28:54 24.65, 145.28 305.58 210
4 05/13/2016 15:59:51 22.62, 147.36 05/13/2016 16:02:49 23.25, 144.56 295.14 178




NCC Satellite Simultaneous Nadir Overpasses (SNOs) Prediction Service
